Weather History for Berlin, NH

Change the Weather History Date:

Friday, August 31, 2012

  Actual Average Record
Temperature  
Mean Temperature 64 °F -  
Max Temperature 77 °F 73 °F 89 °F (2010)
Min Temperature 52 °F 44 °F 34 °F (2003)
Degree Days  
Heating Degree Days 2    
Growing Degree Days 14 (Base 50)    
Moisture  
Dew Point 60 °F    
Average Humidity 86    
Maximum Humidity 100    
Minimum Humidity 45    
Precipitation  
Precipitation 0.59 in - - ()
Sea Level Pressure  
Sea Level Pressure 29.86 in    
Wind  
Wind Speed 1 mph (ESE)    
Max Wind Speed 7 mph    
Max Gust Speed -    
Visibility 5 miles    
Events Fog , Rain , Thunderstorm    
Averages and records for this station are not official NWS values.
T = Trace of Precipitation, MM = Missing Value Source: NWS Daily Summary

Daily Weather History Graph

Daily Weather History Graph

Search for Another Location

Airport:

Trip Planner

Search our weather history database for the weather conditions in past years. The results will help you decide how hot, cold, wet, or windy it might be!

Date:

Astronomy

Aug. 31, 2012 Rise Set
Actual Time 6:06 AM EDT 7:22 PM EDT
Civil Twilight 5:36 AM EDT 7:52 PM EDT
Nautical Twilight 5:00 AM EDT 8:28 PM EDT
Astronomical Twilight 4:21 AM EDT 9:06 PM EDT
Moon 7:02 PM EDT (8/31) 6:10 AM EDT (8/31)
Length of Visible Light 14h 15m
Length of Day
13h 15m
Full, 100% of the Moon is Illuminated
Aug 31
Full
Sep 8
Last Quarter
Sep 15
New
Sep 22
First Quarter
Sep 29
Full

Hourly Weather History & Observations

Time (EDT) Temp. Dew Point Humidity Pressure Visibility Wind Dir Wind Speed Gust Speed Precip Events Conditions
12:52 AM 55.0 °F 52.0 °F 89% 29.92 in 10.0 mi Calm Calm - N/A   Clear
1:52 AM 64.0 °F 54.0 °F 70% 29.90 in 10.0 mi Variable 4.6 mph - N/A   Clear
2:52 AM 57.0 °F 52.0 °F 83% 29.89 in 10.0 mi Calm Calm - N/A   Clear
3:52 AM 55.9 °F 52.0 °F 87% 29.88 in 10.0 mi Calm Calm - N/A   Clear
4:52 AM 53.1 °F 50.0 °F 89% 29.88 in 10.0 mi Calm Calm - N/A   Clear
5:52 AM 54.0 °F 51.1 °F 90% 29.88 in 10.0 mi Calm Calm - N/A   Clear
6:52 AM 52.0 °F 50.0 °F 93% 29.89 in 10.0 mi Calm Calm - N/A   Clear
7:52 AM 57.9 °F 54.0 °F 87% 29.88 in 10.0 mi Calm Calm - N/A   Clear
8:52 AM 68.0 °F 57.0 °F 68% 29.88 in 10.0 mi Calm Calm - N/A   Clear
9:52 AM 73.9 °F 51.1 °F 45% 29.86 in 10.0 mi WSW 3.5 mph - N/A   Clear
10:52 AM 73.9 °F 52.0 °F 46% 29.85 in 10.0 mi Variable 4.6 mph - N/A   Clear
11:52 AM 71.1 °F 54.0 °F 55% 29.85 in 10.0 mi Calm Calm - 0.00 in   Partly Cloudy
12:52 PM 64.0 °F 57.0 °F 78% 29.87 in 5.0 mi Calm Calm - 0.06 in Rain Rain
1:52 PM 69.1 °F 61.0 °F 75% 29.81 in 10.0 mi East 3.5 mph - 0.02 in   Partly Cloudy
2:52 PM 75.0 °F 60.1 °F 60% 29.81 in 10.0 mi Variable 6.9 mph - N/A   Clear
3:52 PM 73.9 °F 59.0 °F 59% 29.79 in 10.0 mi West 4.6 mph - N/A   Clear
4:52 PM 72.0 °F 60.1 °F 66% 29.80 in 10.0 mi Variable 3.5 mph - N/A Thunderstorm Mostly Cloudy
5:08 PM 68.0 °F 62.6 °F 83% 29.82 in 1.8 mi NNW 5.8 mph - 0.07 in Rain , Thunderstorm Heavy Thunderstorms and Rain
5:22 PM 66.2 °F 64.4 °F 94% 29.83 in 3.0 mi Calm Calm - 0.10 in Rain , Thunderstorm Rain
5:37 PM 66.2 °F 64.4 °F 94% 29.83 in 3.0 mi Calm Calm - 0.12 in Rain , Thunderstorm Light Rain
5:52 PM 66.0 °F 64.0 °F 93% 29.84 in 2.5 mi East 3.5 mph - 0.14 in Rain , Thunderstorm Thunderstorms and Rain
6:01 PM 66.2 °F 64.4 °F 94% 29.84 in 5.0 mi Calm Calm - 0.00 in Rain , Thunderstorm Light Thunderstorms and Rain
6:19 PM 66.2 °F 64.4 °F 94% 29.84 in 0.2 mi Calm Calm - 0.18 in Fog , Rain , Thunderstorm Heavy Rain
6:32 PM 66.2 °F 64.4 °F 94% 29.84 in 0.5 mi Calm Calm - 0.32 in Fog , Rain , Thunderstorm Heavy Thunderstorms and Rain
6:39 PM 64.4 °F 64.4 °F 100% 29.83 in 1.0 mi ESE 5.8 mph - 0.35 in Rain Rain
6:43 PM 64.4 °F 64.4 °F 100% 29.84 in 2.0 mi SSE 3.5 mph - 0.35 in Rain , Thunderstorm Light Rain
6:52 PM 64.9 °F 64.0 °F 97% 29.84 in 3.0 mi SE 3.5 mph - 0.36 in Rain , Thunderstorm Light Thunderstorms and Rain
7:04 PM 66.2 °F 64.4 °F 94% 29.84 in 4.0 mi East 3.5 mph - 0.01 in Rain Light Rain
7:52 PM 66.0 °F 64.0 °F 93% 29.85 in 10.0 mi Calm Calm - 0.01 in   Overcast
8:44 PM 66.2 °F 64.4 °F 94% 29.87 in 5.0 mi Calm Calm - N/A   Overcast
8:52 PM 64.9 °F 64.0 °F 97% 29.86 in 4.0 mi Calm Calm - N/A   Overcast
9:52 PM 64.9 °F 63.0 °F 93% 29.86 in 5.0 mi Calm Calm - N/A   Overcast
10:36 PM 64.4 °F 62.6 °F 94% 29.88 in 2.5 mi Calm Calm - N/A   Mostly Cloudy
10:40 PM 64.4 °F 62.6 °F 94% 29.89 in 1.2 mi Calm Calm - N/A   Mostly Cloudy
10:52 PM 64.0 °F 62.1 °F 93% 29.88 in 2.0 mi Calm Calm - N/A   Mostly Cloudy
11:02 PM 62.6 °F 62.6 °F 100% 29.89 in 1.2 mi Calm Calm - N/A   Scattered Clouds
11:07 PM 60.8 °F 60.8 °F 100% 29.89 in 0.5 mi Calm Calm - N/A Fog Fog
11:18 PM 62.6 °F 60.8 °F 94% 29.89 in 1.5 mi Calm Calm - N/A   Mostly Cloudy
11:33 PM 62.6 °F 60.8 °F 94% 29.89 in 3.0 mi Calm Calm - N/A   Overcast
11:40 PM 62.6 °F 60.8 °F 94% 29.89 in 1.5 mi Calm Calm - N/A   Mostly Cloudy
11:42 PM 62.6 °F 60.8 °F 94% 29.89 in 1.0 mi Calm Calm - N/A   Mostly Cloudy
11:47 PM 62.6 °F 60.8 °F 94% 29.89 in 0.2 mi Calm Calm - N/A Fog Fog
11:52 PM 59.0 °F 59.0 °F 100% 29.89 in 0.2 mi Calm Calm - N/A Fog Fog